星链-4033 (STARLINK-4033 )

导读 | 星芒AI

STARLINK-4033 是 SpaceX Starlink 项目中的一颗低轨通信卫星,属于第 14 批组网发射的“批 4”卫星之一。该卫星于 2022 年 9 月 30 日由猎鹰 9 号火箭送入近地轨道,旨在为全球提供高速互联网服务。它运行在约 550 公里的高度,配备先进通信设备,支持 Ku 和 Ka 频段,具备自动避撞和自主推进能力。作为 Starlink 卫星群的一部分,STARLINK-4033 有助于提升网络覆盖与连接稳定性,尤其在偏远地区。

基本信息
目录编号:
52702
目录名称:
STARLINK-4033
国际标识:
2022-053AY
轨道中心:
EARTH
卫星名称:
星链-4033
卫星全名:
星链-4033 (STARLINK-4033 )
卫星状态:
在轨 (已飞行1266 天)
发射日期:
2022-05-18 UTC
国别 :
美国 (US)
星等 :
--
轨道信息
数据来源 国际轨道数据
星历时间: 2025-11-04T17:20:44+0800
14小时前
查看轨道信息
半长轴: 6917.882km
偏心率: 0.0001421
轨道倾角: 53.217°
近地点辐角 85.724°
升交点赤经 351.643°
平近点角 274.391°
近地点: 538.763km
远地点: 540.731km
周期: 95.438分钟
每日圈数: 15.088395
详细信息
固有亮度:
5
最大亮度:
2.5
卫星平台:
Starlink v1.5
覆盖范围:
全球
运营商:
太空探索技术公司
运营商所在国:
美国
制造商(研发单位):
太空探索技术公司
制造商所在国:
美国
使用方式:
暂无
卫星简介
星链(Starlink)计划是由太空探索技术公司(SpaceX)提出的一个巨型低轨卫星互联网星座项目,计划在2019年至2024年间在太空搭建由约1.2万颗卫星组成的“星链”网络,其中1584颗将部署在地球上空550千米处的近地轨道,并从2020年开始工作。该卫星仍在工作。
2D轨道图
3D轨道图
轨道高度分析图
轨道倾角分析图
轨道综合分析图
查看轨道综合分析图